Time,TemperatureF,DewpointF,PressureIn,WindDirection,WindDirectionDegrees,WindSpeedMPH,WindSpeedGustMPH,Humidity,HourlyPrecipIn,Conditions,Clouds,dailyrainin,SolarRadiationWatts/m^2,SoftwareType,DateUTC
2013-09-27 00:01:00,68.0,39.0,-100.00,SSW,196,7.0,15.0,34,0.00,,,0.00,0.000000,,2013-09-27 06:01:00,
2013-09-27 00:22:00,68.0,39.0,-100.00,SSW,196,7.0,15.0,34,0.00,,,0.00,0.000000,,2013-09-27 06:22:00,
2013-09-27 00:32:00,68.0,39.0,-100.00,SSW,196,7.0,15.0,34,0.00,,,0.00,0.000000,,2013-09-27 06:32:00,
2013-09-27 00:43:00,68.0,39.0,-100.00,SSW,196,7.0,15.0,34,0.00,,,0.00,0.000000,,2013-09-27 06:43:00,
2013-09-27 00:52:00,68.0,39.0,-100.00,SSW,196,7.0,15.0,34,0.00,,,0.00,0.000000,,2013-09-27 06:52:00,
2013-09-27 01:01:00,67.0,40.0,-100.00,WSW,255,6.0,16.0,37,0.00,,,0.00,0.000000,,2013-09-27 07:01:00,
2013-09-27 01:44:00,67.0,40.0,-100.00,WSW,255,6.0,16.0,37,0.00,,,0.00,0.000000,,2013-09-27 07:44:00,
2013-09-27 01:53:00,67.0,40.0,-100.00,WSW,255,6.0,16.0,37,0.00,,,0.00,0.000000,,2013-09-27 07:53:00,
2013-09-27 02:01:00,66.0,43.0,-100.00,SSW,198,6.0,18.0,43,0.00,,,0.00,0.000000,,2013-09-27 08:01:00,
2013-09-27 02:22:00,66.0,43.0,-100.00,SSW,198,6.0,18.0,43,0.00,,,0.00,0.000000,,2013-09-27 08:22:00,
2013-09-27 02:32:00,66.0,43.0,-100.00,SSW,198,6.0,18.0,43,0.00,,,0.00,0.000000,,2013-09-27 08:32:00,
2013-09-27 02:42:00,66.0,43.0,-100.00,SSW,198,6.0,18.0,43,0.00,,,0.00,0.000000,,2013-09-27 08:42:00,
2013-09-27 02:52:00,66.0,43.0,-100.00,SSW,198,6.0,18.0,43,0.00,,,0.00,0.000000,,2013-09-27 08:52:00,
2013-09-27 03:01:00,65.0,44.0,-100.00,WSW,244,7.0,16.0,46,0.00,,,0.00,0.000000,,2013-09-27 09:01:00,
2013-09-27 03:44:00,65.0,44.0,-100.00,WSW,244,7.0,16.0,46,0.00,,,0.00,0.000000,,2013-09-27 09:44:00,
2013-09-27 03:54:00,65.0,44.0,-100.00,WSW,244,7.0,16.0,46,0.00,,,0.00,0.000000,,2013-09-27 09:54:00,
2013-09-27 04:01:00,64.0,44.0,-100.00,WSW,254,8.0,19.0,49,0.00,,,0.00,0.000000,,2013-09-27 10:01:00,
2013-09-27 04:42:00,64.0,44.0,-100.00,WSW,254,8.0,19.0,49,0.00,,,0.00,0.000000,,2013-09-27 10:42:00,
2013-09-27 04:52:00,64.0,44.0,-100.00,WSW,254,8.0,19.0,49,0.00,,,0.00,0.000000,,2013-09-27 10:52:00,
2013-09-27 05:01:00,62.0,45.0,-100.00,WNW,286,5.0,15.0,53,0.00,,,0.00,0.000000,,2013-09-27 11:01:00,
2013-09-27 05:22:00,62.0,45.0,-100.00,WNW,286,5.0,15.0,53,0.00,,,0.00,0.000000,,2013-09-27 11:22:00,
2013-09-27 05:33:00,62.0,45.0,-100.00,WNW,286,5.0,15.0,53,0.00,,,0.00,0.000000,,2013-09-27 11:33:00,
2013-09-27 05:43:00,62.0,45.0,-100.00,WNW,286,5.0,15.0,53,0.00,,,0.00,0.000000,,2013-09-27 11:43:00,
2013-09-27 05:52:00,62.0,45.0,-100.00,WNW,286,5.0,15.0,53,0.00,,,0.00,0.000000,,2013-09-27 11:52:00,
2013-09-27 06:01:00,62.0,47.0,-100.00,West,270,7.0,15.0,57,0.00,,,0.00,0.000000,,2013-09-27 12:01:00,
2013-09-27 06:42:00,62.0,47.0,-100.00,West,270,7.0,15.0,57,0.00,,,0.00,0.000000,,2013-09-27 12:42:00,
2013-09-27 06:52:00,62.0,47.0,-100.00,West,270,7.0,15.0,57,0.00,,,0.00,0.000000,,2013-09-27 12:52:00,
2013-09-27 07:01:00,61.0,47.0,-100.00,West,259,5.0,15.0,59,0.00,,,0.00,1.000000,,2013-09-27 13:01:00,
2013-09-27 07:42:00,61.0,47.0,-100.00,West,259,5.0,15.0,59,0.00,,,0.00,1.000000,,2013-09-27 13:42:00,
2013-09-27 07:53:00,61.0,47.0,-100.00,West,259,5.0,15.0,59,0.00,,,0.00,1.000000,,2013-09-27 13:53:00,
2013-09-27 08:01:00,61.0,47.0,-100.00,West,275,5.0,13.0,61,0.00,,,0.00,18.000000,,2013-09-27 14:01:00,
2013-09-27 08:42:00,61.0,47.0,-100.00,West,275,5.0,13.0,61,0.00,,,0.00,18.000000,,2013-09-27 14:42:00,
2013-09-27 08:52:00,61.0,47.0,-100.00,West,275,5.0,13.0,61,0.00,,,0.00,18.000000,,2013-09-27 14:52:00,
2013-09-27 09:01:00,66.0,54.0,-100.00,SW,223,7.0,13.0,65,0.00,,,0.00,134.000000,,2013-09-27 15:01:00,
2013-09-27 09:22:00,66.0,54.0,-100.00,SW,223,7.0,13.0,65,0.00,,,0.00,134.000000,,2013-09-27 15:22:00,
2013-09-27 09:33:00,66.0,54.0,-100.00,SW,223,7.0,13.0,65,0.00,,,0.00,134.000000,,2013-09-27 15:33:00,
2013-09-27 09:44:00,66.0,54.0,-100.00,SW,223,7.0,13.0,65,0.00,,,0.00,134.000000,,2013-09-27 15:44:00,
2013-09-27 09:54:00,66.0,54.0,-100.00,SW,223,7.0,13.0,65,0.00,,,0.00,134.000000,,2013-09-27 15:54:00,
2013-09-27 10:01:00,70.0,54.0,-100.00,SW,218,6.0,18.0,57,0.00,,,0.00,507.000000,,2013-09-27 16:01:00,
2013-09-27 10:44:00,70.0,54.0,-100.00,SW,218,6.0,18.0,57,0.00,,,0.00,507.000000,,2013-09-27 16:44:00,
2013-09-27 10:53:00,70.0,54.0,-100.00,SW,218,6.0,18.0,57,0.00,,,0.00,507.000000,,2013-09-27 16:53:00,
2013-09-27 11:01:00,71.0,54.0,-100.00,SSW,198,10.0,20.0,55,0.00,,,0.00,701.000000,,2013-09-27 17:01:00,
2013-09-27 11:43:00,71.0,54.0,-100.00,SSW,198,10.0,20.0,55,0.00,,,0.00,701.000000,,2013-09-27 17:43:00,
2013-09-27 11:52:00,71.0,54.0,-100.00,SSW,198,10.0,20.0,55,0.00,,,0.00,701.000000,,2013-09-27 17:52:00,
2013-09-27 12:01:00,71.0,52.0,-100.00,WSW,241,12.0,25.0,51,0.00,,,0.00,791.000000,,2013-09-27 18:01:00,
2013-09-27 12:43:00,71.0,52.0,-100.00,WSW,241,12.0,25.0,51,0.00,,,0.00,791.000000,,2013-09-27 18:43:00,
2013-09-27 12:52:00,71.0,52.0,-100.00,WSW,241,12.0,25.0,51,0.00,,,0.00,791.000000,,2013-09-27 18:52:00,
2013-09-27 13:01:00,71.0,50.0,-100.00,SSW,197,10.0,23.0,47,0.00,,,0.00,515.000000,,2013-09-27 19:01:00,
2013-09-27 13:43:00,71.0,50.0,-100.00,SSW,197,10.0,23.0,47,0.00,,,0.00,515.000000,,2013-09-27 19:43:00,
2013-09-27 13:53:00,71.0,50.0,-100.00,SSW,197,10.0,23.0,47,0.00,,,0.00,515.000000,,2013-09-27 19:53:00,
2013-09-27 14:01:00,73.0,47.0,-100.00,SSW,196,14.0,31.0,39,0.00,,,0.00,777.000000,,2013-09-27 20:01:00,
2013-09-27 14:22:00,73.0,47.0,-100.00,SSW,196,14.0,31.0,39,0.00,,,0.00,777.000000,,2013-09-27 20:22:00,
2013-09-27 14:32:00,73.0,47.0,-100.00,SSW,196,14.0,31.0,39,0.00,,,0.00,777.000000,,2013-09-27 20:32:00,
2013-09-27 14:43:00,73.0,47.0,-100.00,SSW,196,14.0,31.0,39,0.00,,,0.00,777.000000,,2013-09-27 20:43:00,
2013-09-27 14:52:00,73.0,47.0,-100.00,SSW,196,14.0,31.0,39,0.00,,,0.00,777.000000,,2013-09-27 20:52:00,
2013-09-27 15:01:00,75.0,45.0,-100.00,SSW,210,12.0,32.0,34,0.00,,,0.00,766.000000,,2013-09-27 21:01:00,
2013-09-27 15:44:00,75.0,45.0,-100.00,SSW,210,12.0,32.0,34,0.00,,,0.00,766.000000,,2013-09-27 21:44:00,
2013-09-27 15:54:00,75.0,45.0,-100.00,SSW,210,12.0,32.0,34,0.00,,,0.00,766.000000,,2013-09-27 21:54:00,
2013-09-27 16:01:00,73.0,41.0,-100.00,SSW,203,13.0,27.0,32,0.00,,,0.00,437.000000,,2013-09-27 22:01:00,
2013-09-27 16:43:00,73.0,41.0,-100.00,SSW,203,13.0,27.0,32,0.00,,,0.00,437.000000,,2013-09-27 22:43:00,
2013-09-27 16:53:00,73.0,41.0,-100.00,SSW,203,13.0,27.0,32,0.00,,,0.00,437.000000,,2013-09-27 22:53:00,
2013-09-27 17:01:00,75.0,40.0,-100.00,SW,234,10.0,26.0,28,0.00,,,0.00,392.000000,,2013-09-27 23:01:00,
2013-09-27 17:43:00,75.0,40.0,-100.00,SW,234,10.0,26.0,28,0.00,,,0.00,392.000000,,2013-09-27 23:43:00,
2013-09-27 17:53:00,75.0,40.0,-100.00,SW,234,10.0,26.0,28,0.00,,,0.00,392.000000,,2013-09-27 23:53:00,
2013-09-27 18:01:00,71.0,40.0,-100.00,West,267,14.0,29.0,33,0.00,,,0.00,261.000000,,2013-09-28 00:01:00,
2013-09-27 18:22:00,71.0,40.0,-100.00,West,267,14.0,29.0,33,0.00,,,0.00,261.000000,,2013-09-28 00:22:00,
2013-09-27 18:32:00,71.0,40.0,-100.00,West,267,14.0,29.0,33,0.00,,,0.00,261.000000,,2013-09-28 00:32:00,
2013-09-27 18:42:00,71.0,40.0,-100.00,West,267,14.0,29.0,33,0.00,,,0.00,261.000000,,2013-09-28 00:42:00,
2013-09-27 18:52:00,71.0,40.0,-100.00,West,267,14.0,29.0,33,0.00,,,0.00,261.000000,,2013-09-28 00:52:00,
2013-09-27 19:01:00,66.0,38.0,-100.00,WNW,296,9.0,25.0,36,0.00,,,0.00,54.000000,,2013-09-28 01:01:00,
2013-09-27 19:42:00,66.0,38.0,-100.00,WNW,296,9.0,25.0,36,0.00,,,0.00,54.000000,,2013-09-28 01:42:00,
2013-09-27 19:52:00,66.0,38.0,-100.00,WNW,296,9.0,25.0,36,0.00,,,0.00,54.000000,,2013-09-28 01:52:00,
2013-09-27 20:01:00,63.0,40.0,-100.00,WNW,296,11.0,26.0,43,0.00,,,0.00,1.000000,,2013-09-28 02:01:00,
2013-09-27 20:42:00,63.0,40.0,-100.00,WNW,296,11.0,26.0,43,0.00,,,0.00,1.000000,,2013-09-28 02:42:00,
2013-09-27 20:53:00,63.0,40.0,-100.00,WNW,296,11.0,26.0,43,0.00,,,0.00,1.000000,,2013-09-28 02:53:00,
2013-09-27 21:01:00,62.0,40.0,-100.00,WNW,299,10.0,19.0,44,0.00,,,0.00,0.000000,,2013-09-28 03:01:00,
2013-09-27 21:45:00,62.0,40.0,-100.00,WNW,299,10.0,19.0,44,0.00,,,0.00,0.000000,,2013-09-28 03:45:00,
2013-09-27 21:55:00,62.0,40.0,-100.00,WNW,299,10.0,19.0,44,0.00,,,0.00,0.000000,,2013-09-28 03:55:00,
2013-09-27 22:01:00,60.0,37.0,-100.00,North,350,5.0,16.0,43,0.00,,,0.00,0.000000,,2013-09-28 04:01:00,
2013-09-27 22:25:00,60.0,37.0,-100.00,North,350,5.0,16.0,43,0.00,,,0.00,0.000000,,2013-09-28 04:25:00,
2013-09-27 22:34:00,60.0,37.0,-100.00,North,350,5.0,16.0,43,0.00,,,0.00,0.000000,,2013-09-28 04:34:00,
2013-09-27 22:43:00,60.0,37.0,-100.00,North,350,5.0,16.0,43,0.00,,,0.00,0.000000,,2013-09-28 04:43:00,
2013-09-27 22:54:00,60.0,37.0,-100.00,North,350,5.0,16.0,43,0.00,,,0.00,0.000000,,2013-09-28 04:54:00,
2013-09-27 23:01:00,57.0,38.0,-100.00,NNW,339,5.0,7.0,48,0.00,,,0.00,0.000000,,2013-09-28 05:01:00,
2013-09-27 23:22:00,57.0,38.0,-100.00,NNW,339,5.0,7.0,48,0.00,,,0.00,0.000000,,2013-09-28 05:22:00,
2013-09-27 23:34:00,57.0,38.0,-100.00,NNW,339,5.0,7.0,48,0.00,,,0.00,0.000000,,2013-09-28 05:34:00,
2013-09-27 23:43:00,57.0,38.0,-100.00,NNW,339,5.0,7.0,48,0.00,,,0.00,0.000000,,2013-09-28 05:43:00,
2013-09-27 23:53:00,57.0,38.0,-100.00,NNW,339,5.0,7.0,48,0.00,,,0.00,0.000000,,2013-09-28 05:53:00,